Time,TemperatureF,DewpointF,PressureIn,WindDirection,WindDirectionDegrees,WindSpeedMPH,WindSpeedGustMPH,Humidity,HourlyPrecipIn,Conditions,Clouds,dailyrainin,SoftwareType,DateUTC
2013-06-05 00:02:00,56.7,52.2,29.95,NE,43,0.0,1.0,85,0.00,,,0.00,VWS V14.01,2013-06-05 04:02:00,
2013-06-05 00:12:00,56.1,52.0,29.95,NE,43,0.0,1.0,86,0.00,,,0.00,VWS V14.01,2013-06-05 04:12:00,
2013-06-05 00:22:00,55.8,52.0,29.95,NE,43,0.0,1.0,87,0.00,,,0.00,VWS V14.01,2013-06-05 04:22:00,
2013-06-05 00:32:00,55.8,52.0,29.96,NE,43,0.0,0.0,87,0.00,,,0.00,VWS V14.01,2013-06-05 04:32:00,
2013-06-05 00:42:00,55.7,51.6,29.96,NE,43,0.0,0.0,86,0.00,,,0.00,VWS V14.01,2013-06-05 04:42:00,
2013-06-05 00:52:00,55.3,50.9,29.96,NE,43,0.0,1.0,85,0.00,,,0.00,VWS V14.01,2013-06-05 04:52:00,
2013-06-05 01:02:00,55.0,50.9,29.96,NE,43,0.0,1.0,86,0.00,,,0.00,VWS V14.01,2013-06-05 05:02:00,
2013-06-05 01:12:00,54.8,50.7,29.96,NE,43,0.0,1.0,86,0.00,,,0.00,VWS V14.01,2013-06-05 05:12:00,
2013-06-05 01:22:00,54.6,50.5,29.96,NE,43,0.0,1.0,86,0.00,,,0.00,VWS V14.01,2013-06-05 05:22:00,
2013-06-05 01:32:00,54.2,50.1,29.97,NE,43,0.0,1.0,86,0.00,,,0.00,VWS V14.01,2013-06-05 05:32:00,
2013-06-05 01:42:00,54.0,49.9,29.97,NE,43,0.0,1.0,86,0.00,,,0.00,VWS V14.01,2013-06-05 05:42:00,
2013-06-05 01:52:00,53.6,49.8,29.96,NE,43,0.0,1.0,87,0.00,,,0.00,VWS V14.01,2013-06-05 05:52:00,
2013-06-05 02:02:00,53.6,49.5,29.96,NE,43,0.0,0.0,86,0.00,,,0.00,VWS V14.01,2013-06-05 06:02:00,
2013-06-05 02:12:00,53.4,49.3,29.96,NE,43,0.0,0.0,86,0.00,,,0.00,VWS V14.01,2013-06-05 06:12:00,
2013-06-05 02:22:00,53.5,49.4,29.96,NE,43,0.0,1.0,86,0.00,,,0.00,VWS V14.01,2013-06-05 06:22:00,
2013-06-05 02:32:00,53.3,49.2,29.97,NE,43,0.0,0.0,86,0.00,,,0.00,VWS V14.01,2013-06-05 06:32:00,
2013-06-05 02:42:00,52.9,48.8,29.97,NE,43,0.0,1.0,86,0.00,,,0.00,VWS V14.01,2013-06-05 06:42:00,
2013-06-05 02:52:00,52.8,48.7,29.97,NE,43,0.0,0.0,86,0.00,,,0.00,VWS V14.01,2013-06-05 06:52:00,
2013-06-05 03:02:00,52.7,48.6,29.98,NE,43,0.0,0.0,86,0.00,,,0.00,VWS V14.01,2013-06-05 07:02:00,
2013-06-05 03:12:00,52.4,48.3,29.98,NE,43,0.0,1.0,86,0.00,,,0.00,VWS V14.01,2013-06-05 07:12:00,
2013-06-05 03:22:00,51.9,48.2,29.98,NE,43,0.0,1.0,87,0.00,,,0.00,VWS V14.01,2013-06-05 07:22:00,
2013-06-05 03:32:00,51.7,48.0,29.98,NE,43,0.0,1.0,87,0.00,,,0.00,VWS V14.01,2013-06-05 07:32:00,
2013-06-05 03:42:00,51.6,47.9,29.98,NE,43,0.0,1.0,87,0.00,,,0.00,VWS V14.01,2013-06-05 07:42:00,
2013-06-05 03:52:00,51.5,47.8,29.98,NE,43,0.0,0.0,87,0.00,,,0.00,VWS V14.01,2013-06-05 07:52:00,
2013-06-05 04:02:00,51.5,47.8,29.98,NE,43,0.0,1.0,87,0.00,,,0.00,VWS V14.01,2013-06-05 08:02:00,
2013-06-05 04:12:00,51.2,47.8,29.98,NE,43,0.0,1.0,88,0.00,,,0.00,VWS V14.01,2013-06-05 08:12:00,
2013-06-05 04:22:00,51.0,47.9,29.98,NE,43,0.0,2.0,89,0.00,,,0.00,VWS V14.01,2013-06-05 08:22:00,
2013-06-05 04:32:00,50.8,47.7,29.98,NE,43,0.0,1.0,89,0.00,,,0.00,VWS V14.01,2013-06-05 08:32:00,
2013-06-05 04:42:00,50.4,47.6,29.98,NE,43,0.0,2.0,90,0.00,,,0.00,VWS V14.01,2013-06-05 08:42:00,
2013-06-05 04:52:00,50.3,47.5,29.98,NE,43,0.0,1.0,90,0.00,,,0.00,VWS V14.01,2013-06-05 08:52:00,
2013-06-05 05:02:00,50.4,47.9,29.98,NE,43,0.0,0.0,91,0.00,,,0.00,VWS V14.01,2013-06-05 09:02:00,
2013-06-05 05:12:00,50.4,47.6,29.98,NE,43,0.0,1.0,90,0.00,,,0.00,VWS V14.01,2013-06-05 09:12:00,
2013-06-05 05:22:00,50.1,47.3,29.99,NE,43,0.0,1.0,90,0.00,,,0.00,VWS V14.01,2013-06-05 09:22:00,
2013-06-05 05:32:00,49.7,46.9,30.00,NE,43,0.0,1.0,90,0.00,,,0.00,VWS V14.01,2013-06-05 09:32:00,
2013-06-05 05:42:00,49.5,46.7,30.00,NE,43,0.0,0.0,90,0.00,,,0.00,VWS V14.01,2013-06-05 09:42:00,
2013-06-05 05:52:00,49.5,46.7,30.01,NE,43,0.0,1.0,90,0.00,,,0.00,VWS V14.01,2013-06-05 09:52:00,
2013-06-05 06:02:00,49.4,46.9,30.01,NE,43,0.0,0.0,91,0.00,,,0.00,VWS V14.01,2013-06-05 10:02:00,
2013-06-05 06:12:00,49.6,47.4,30.01,NE,43,0.0,1.0,92,0.00,,,0.00,VWS V14.01,2013-06-05 10:12:00,
2013-06-05 06:22:00,49.7,47.5,30.02,NE,43,0.0,0.0,92,0.00,,,0.00,VWS V14.01,2013-06-05 10:22:00,
2013-06-05 06:32:00,50.0,47.8,30.02,NE,43,0.0,0.0,92,0.00,,,0.00,VWS V14.01,2013-06-05 10:32:00,
2013-06-05 06:42:00,50.4,48.7,30.02,NE,43,0.0,0.0,94,0.00,,,0.00,VWS V14.01,2013-06-05 10:42:00,
2013-06-05 06:52:00,50.8,49.1,30.03,NE,43,0.0,0.0,94,0.00,,,0.00,VWS V14.01,2013-06-05 10:52:00,
2013-06-05 07:02:00,51.3,49.6,30.04,NE,43,0.0,0.0,94,0.00,,,0.00,VWS V14.01,2013-06-05 11:02:00,
2013-06-05 07:12:00,51.8,50.1,30.04,NE,43,0.0,0.0,94,0.00,,,0.00,VWS V14.01,2013-06-05 11:12:00,
2013-06-05 07:22:00,52.3,50.9,30.04,NE,43,0.0,0.0,95,0.00,,,0.00,VWS V14.01,2013-06-05 11:22:00,
2013-06-05 07:32:00,53.0,51.6,30.04,NE,43,0.0,2.0,95,0.00,,,0.00,VWS V14.01,2013-06-05 11:32:00,
2013-06-05 07:42:00,53.9,52.5,30.04,NE,43,0.0,1.0,95,0.00,,,0.00,VWS V14.01,2013-06-05 11:42:00,
2013-06-05 07:52:00,54.7,53.0,30.05,NE,43,0.0,1.0,94,0.00,,,0.00,VWS V14.01,2013-06-05 11:52:00,
2013-06-05 08:02:00,55.5,52.9,30.05,NE,43,1.0,1.0,91,0.00,,,0.00,VWS V14.01,2013-06-05 12:02:00,
2013-06-05 08:12:00,56.4,54.1,30.05,NE,43,0.0,1.0,92,0.00,,,0.00,VWS V14.01,2013-06-05 12:12:00,
2013-06-05 08:22:00,57.6,54.1,30.05,NE,43,0.0,1.0,88,0.00,,,0.00,VWS V14.01,2013-06-05 12:22:00,
2013-06-05 08:32:00,58.7,53.2,30.06,NE,43,0.0,2.0,82,0.00,,,0.00,VWS V14.01,2013-06-05 12:32:00,
2013-06-05 08:42:00,59.6,53.8,30.06,North,355,1.0,3.0,81,0.00,,,0.00,VWS V14.01,2013-06-05 12:42:00,
2013-06-05 08:52:00,60.6,53.7,30.06,North,355,1.0,2.0,78,0.00,,,0.00,VWS V14.01,2013-06-05 12:52:00,
2013-06-05 09:02:00,61.8,54.2,30.06,North,355,1.0,2.0,76,0.00,,,0.00,VWS V14.01,2013-06-05 13:02:00,
2013-06-05 09:12:00,62.5,52.6,30.06,North,355,2.0,2.0,70,0.00,,,0.00,VWS V14.01,2013-06-05 13:12:00,
2013-06-05 09:22:00,63.4,55.0,30.06,North,355,1.0,2.0,74,0.00,,,0.00,VWS V14.01,2013-06-05 13:22:00,
2013-06-05 09:32:00,64.3,51.9,30.06,North,355,0.0,2.0,64,0.00,,,0.00,VWS V14.01,2013-06-05 13:32:00,
2013-06-05 09:42:00,65.0,51.7,30.06,NNW,348,1.0,4.0,62,0.00,,,0.00,VWS V14.01,2013-06-05 13:42:00,
2013-06-05 09:52:00,65.6,51.8,30.06,West,262,1.0,3.0,61,0.00,,,0.00,VWS V14.01,2013-06-05 13:52:00,
2013-06-05 10:02:00,66.0,48.9,30.06,NNW,331,2.0,3.0,54,0.00,,,0.00,VWS V14.01,2013-06-05 14:02:00,
2013-06-05 10:12:00,66.4,50.2,30.06,North,360,1.0,3.0,56,0.00,,,0.00,VWS V14.01,2013-06-05 14:12:00,
2013-06-05 10:22:00,67.1,50.9,30.06,North,360,2.0,2.0,56,0.00,,,0.00,VWS V14.01,2013-06-05 14:22:00,
2013-06-05 10:32:00,67.7,52.4,30.07,North,360,1.0,2.0,58,0.00,,,0.00,VWS V14.01,2013-06-05 14:32:00,
2013-06-05 10:42:00,68.1,52.8,30.07,North,360,0.0,2.0,58,0.00,,,0.00,VWS V14.01,2013-06-05 14:42:00,
2013-06-05 10:52:00,68.6,48.7,30.07,NW,308,1.0,3.0,49,0.00,,,0.00,VWS V14.01,2013-06-05 14:52:00,
2013-06-05 11:02:00,69.4,51.0,30.07,NW,304,0.0,3.0,52,0.00,,,0.00,VWS V14.01,2013-06-05 15:02:00,
2013-06-05 11:12:00,70.6,52.7,30.07,NW,325,1.0,3.0,53,0.00,,,0.00,VWS V14.01,2013-06-05 15:12:00,
2013-06-05 11:22:00,72.0,53.4,30.06,SW,232,2.0,3.0,52,0.00,,,0.00,VWS V14.01,2013-06-05 15:22:00,
2013-06-05 11:32:00,73.3,52.5,30.06,SSE,150,1.0,3.0,48,0.00,,,0.00,VWS V14.01,2013-06-05 15:32:00,
2013-06-05 11:42:00,73.5,52.6,30.06,ENE,72,1.0,3.0,48,0.00,,,0.00,VWS V14.01,2013-06-05 15:42:00,
2013-06-05 11:52:00,73.6,52.7,30.06,SW,229,2.0,3.0,48,0.00,,,0.00,VWS V14.01,2013-06-05 15:52:00,
2013-06-05 12:02:00,73.4,51.4,30.05,East,84,1.0,3.0,46,0.00,,,0.00,VWS V14.01,2013-06-05 16:02:00,
2013-06-05 12:12:00,72.3,52.1,30.05,WSW,244,1.0,4.0,49,0.00,,,0.00,VWS V14.01,2013-06-05 16:12:00,
2013-06-05 12:22:00,71.5,52.4,30.05,SSW,193,0.0,4.0,51,0.00,,,0.00,VWS V14.01,2013-06-05 16:22:00,
2013-06-05 12:32:00,71.3,51.7,30.04,SE,140,1.0,4.0,50,0.00,,,0.00,VWS V14.01,2013-06-05 16:32:00,
2013-06-05 12:42:00,71.5,53.0,30.04,ESE,111,2.0,4.0,52,0.00,,,0.00,VWS V14.01,2013-06-05 16:42:00,
2013-06-05 12:52:00,71.4,47.1,30.05,SE,142,1.0,5.0,42,0.00,,,0.00,VWS V14.01,2013-06-05 16:52:00,
2013-06-05 13:02:00,71.3,49.5,30.04,ESE,113,1.0,3.0,46,0.00,,,0.00,VWS V14.01,2013-06-05 17:02:00,
2013-06-05 13:12:00,71.5,48.5,30.04,WSW,238,0.0,3.0,44,0.00,,,0.00,VWS V14.01,2013-06-05 17:12:00,
2013-06-05 13:22:00,71.7,48.0,30.04,SSW,209,2.0,5.0,43,0.00,,,0.00,VWS V14.01,2013-06-05 17:22:00,
2013-06-05 13:32:00,71.7,49.8,30.03,SW,219,3.0,4.0,46,0.00,,,0.00,VWS V14.01,2013-06-05 17:32:00,
2013-06-05 13:42:00,71.8,47.5,30.03,SSW,197,2.0,4.0,42,0.00,,,0.00,VWS V14.01,2013-06-05 17:42:00,
2013-06-05 13:52:00,72.0,48.3,30.03,SSE,149,1.0,3.0,43,0.00,,,0.00,VWS V14.01,2013-06-05 17:52:00,
2013-06-05 14:02:00,72.2,46.6,30.03,SSW,197,1.0,4.0,40,0.00,,,0.00,VWS V14.01,2013-06-05 18:02:00,
2013-06-05 14:12:00,72.5,49.4,30.03,SSE,148,3.0,4.0,44,0.00,,,0.00,VWS V14.01,2013-06-05 18:12:00,
2013-06-05 14:22:00,72.5,48.1,30.03,SW,223,1.0,4.0,42,0.00,,,0.00,VWS V14.01,2013-06-05 18:22:00,
2013-06-05 14:32:00,72.5,50.0,30.03,East,84,2.0,3.0,45,0.00,,,0.00,VWS V14.01,2013-06-05 18:32:00,
2013-06-05 14:42:00,72.7,49.5,30.03,ESE,117,1.0,3.0,44,0.00,,,0.00,VWS V14.01,2013-06-05 18:42:00,
2013-06-05 14:52:00,72.5,48.8,30.03,ENE,65,0.0,4.0,43,0.00,,,0.00,VWS V14.01,2013-06-05 18:52:00,
2013-06-05 15:02:00,72.7,47.7,30.02,SSE,150,1.0,4.0,41,0.00,,,0.00,VWS V14.01,2013-06-05 19:02:00,
2013-06-05 15:12:00,72.6,48.2,30.02,SW,228,1.0,3.0,42,0.00,,,0.00,VWS V14.01,2013-06-05 19:12:00,
2013-06-05 15:22:00,72.5,50.0,30.01,SW,223,2.0,3.0,45,0.00,,,0.00,VWS V14.01,2013-06-05 19:22:00,
2013-06-05 15:32:00,72.8,49.0,30.01,SW,228,3.0,4.0,43,0.00,,,0.00,VWS V14.01,2013-06-05 19:32:00,
2013-06-05 15:42:00,73.1,47.4,30.01,SSW,213,2.0,4.0,40,0.00,,,0.00,VWS V14.01,2013-06-05 19:42:00,
2013-06-05 15:52:00,73.5,48.4,30.01,ESE,108,1.0,3.0,41,0.00,,,0.00,VWS V14.01,2013-06-05 19:52:00,
2013-06-05 16:02:00,74.3,49.1,30.01,ENE,63,2.0,3.0,41,0.00,,,0.00,VWS V14.01,2013-06-05 20:02:00,
2013-06-05 16:12:00,74.5,46.5,30.01,SE,146,2.0,4.0,37,0.00,,,0.00,VWS V14.01,2013-06-05 20:12:00,
2013-06-05 16:22:00,75.1,47.1,30.01,SSW,192,1.0,4.0,37,0.00,,,0.00,VWS V14.01,2013-06-05 20:22:00,
2013-06-05 16:32:00,76.0,47.2,30.02,ESE,105,1.0,3.0,36,0.00,,,0.00,VWS V14.01,2013-06-05 20:32:00,
2013-06-05 16:42:00,75.7,45.4,30.02,East,96,0.0,3.0,34,0.00,,,0.00,VWS V14.01,2013-06-05 20:42:00,
2013-06-05 16:52:00,76.1,46.5,30.02,SE,130,0.0,3.0,35,0.00,,,0.00,VWS V14.01,2013-06-05 20:52:00,
2013-06-05 17:02:00,75.8,47.0,30.01,SE,145,1.0,4.0,36,0.00,,,0.00,VWS V14.01,2013-06-05 21:02:00,
2013-06-05 17:12:00,76.5,48.3,30.01,SW,223,0.0,3.0,37,0.00,,,0.00,VWS V14.01,2013-06-05 21:12:00,
2013-06-05 17:22:00,76.2,48.0,30.02,ENE,75,1.0,3.0,37,0.00,,,0.00,VWS V14.01,2013-06-05 21:22:00,
2013-06-05 17:32:00,76.3,47.4,30.02,SSE,147,1.0,3.0,36,0.00,,,0.00,VWS V14.01,2013-06-05 21:32:00,
2013-06-05 17:42:00,76.8,45.5,30.02,ESE,109,1.0,3.0,33,0.00,,,0.00,VWS V14.01,2013-06-05 21:42:00,
2013-06-05 17:52:00,76.8,47.8,30.02,SE,129,1.0,2.0,36,0.00,,,0.00,VWS V14.01,2013-06-05 21:52:00,
2013-06-05 18:02:00,77.3,48.3,30.01,SSW,210,1.0,3.0,36,0.00,,,0.00,VWS V14.01,2013-06-05 22:02:00,
2013-06-05 18:12:00,77.4,47.6,30.01,SSW,202,1.0,2.0,35,0.00,,,0.00,VWS V14.01,2013-06-05 22:12:00,
2013-06-05 18:22:00,77.1,48.1,30.01,SE,125,0.0,3.0,36,0.00,,,0.00,VWS V14.01,2013-06-05 22:22:00,
2013-06-05 18:32:00,75.6,50.3,30.01,SE,140,1.0,3.0,41,0.00,,,0.00,VWS V14.01,2013-06-05 22:32:00,
2013-06-05 18:42:00,74.6,48.0,30.01,ESE,113,0.0,2.0,39,0.00,,,0.00,VWS V14.01,2013-06-05 22:42:00,
2013-06-05 18:52:00,73.1,49.3,30.01,ESE,113,1.0,1.0,43,0.00,,,0.00,VWS V14.01,2013-06-05 22:52:00,
2013-06-05 19:02:00,70.8,49.0,30.02,ESE,113,1.0,1.0,46,0.00,,,0.00,VWS V14.01,2013-06-05 23:02:00,
2013-06-05 19:12:00,69.0,49.1,30.02,ESE,111,1.0,1.0,49,0.00,,,0.00,VWS V14.01,2013-06-05 23:12:00,
2013-06-05 19:22:00,67.7,49.5,30.02,ESE,111,0.0,1.0,52,0.00,,,0.00,VWS V14.01,2013-06-05 23:22:00,
2013-06-05 19:32:00,67.0,49.8,30.01,ESE,111,1.0,1.0,54,0.00,,,0.00,VWS V14.01,2013-06-05 23:32:00,
2013-06-05 19:42:00,66.2,50.1,30.01,ESE,111,0.0,1.0,56,0.00,,,0.00,VWS V14.01,2013-06-05 23:42:00,
2013-06-05 19:52:00,65.7,50.5,30.01,ESE,111,0.0,1.0,58,0.00,,,0.00,VWS V14.01,2013-06-05 23:52:00,
2013-06-05 20:02:00,65.1,50.9,30.01,ESE,111,0.0,0.0,60,0.00,,,0.00,VWS V14.01,2013-06-06 00:02:00,
2013-06-05 20:12:00,64.3,51.0,30.01,ESE,111,0.0,1.0,62,0.00,,,0.00,VWS V14.01,2013-06-06 00:12:00,
2013-06-05 20:22:00,63.5,51.5,30.01,ESE,111,0.0,1.0,65,0.00,,,0.00,VWS V14.01,2013-06-06 00:22:00,
2013-06-05 20:32:00,62.8,51.7,30.01,ESE,111,0.0,1.0,67,0.00,,,0.00,VWS V14.01,2013-06-06 00:32:00,
2013-06-05 20:42:00,62.5,52.6,30.01,ESE,111,0.0,1.0,70,0.00,,,0.00,VWS V14.01,2013-06-06 00:42:00,
2013-06-05 20:52:00,62.0,52.9,30.01,ESE,111,0.0,1.0,72,0.00,,,0.00,VWS V14.01,2013-06-06 00:52:00,
2013-06-05 21:02:00,61.3,52.6,30.01,ESE,111,1.0,1.0,73,0.00,,,0.00,VWS V14.01,2013-06-06 01:02:00,
2013-06-05 21:12:00,60.9,52.9,30.01,ESE,111,0.0,1.0,75,0.00,,,0.00,VWS V14.01,2013-06-06 01:12:00,
2013-06-05 21:22:00,60.6,53.0,30.02,ESE,111,0.0,1.0,76,0.00,,,0.00,VWS V14.01,2013-06-06 01:22:00,
2013-06-05 21:32:00,60.2,53.0,30.02,ESE,111,0.0,1.0,77,0.00,,,0.00,VWS V14.01,2013-06-06 01:32:00,
2013-06-05 21:42:00,60.1,52.9,30.02,ESE,111,0.0,0.0,77,0.00,,,0.00,VWS V14.01,2013-06-06 01:42:00,
2013-06-05 21:52:00,59.7,53.2,30.02,ESE,111,0.0,0.0,79,0.00,,,0.00,VWS V14.01,2013-06-06 01:52:00,
2013-06-05 22:02:00,59.2,52.7,30.03,ESE,111,0.0,0.0,79,0.00,,,0.00,VWS V14.01,2013-06-06 02:02:00,
2013-06-05 22:12:00,58.7,52.9,30.03,ESE,111,0.0,0.0,81,0.00,,,0.00,VWS V14.01,2013-06-06 02:12:00,
2013-06-05 22:22:00,58.3,52.8,30.02,ESE,111,0.0,0.0,82,0.00,,,0.00,VWS V14.01,2013-06-06 02:22:00,
2013-06-05 22:32:00,58.1,53.0,30.03,ESE,111,0.0,0.0,83,0.00,,,0.00,VWS V14.01,2013-06-06 02:32:00,
2013-06-05 22:42:00,58.0,53.2,30.03,ESE,111,0.0,0.0,84,0.00,,,0.00,VWS V14.01,2013-06-06 02:42:00,
2013-06-05 22:52:00,58.0,53.2,30.02,ESE,111,0.0,1.0,84,0.00,,,0.00,VWS V14.01,2013-06-06 02:52:00,
2013-06-05 23:02:00,57.8,53.3,30.02,ESE,111,0.0,0.0,85,0.00,,,0.00,VWS V14.01,2013-06-06 03:02:00,
2013-06-05 23:12:00,57.8,53.3,30.02,ESE,111,0.0,0.0,85,0.00,,,0.00,VWS V14.01,2013-06-06 03:12:00,
2013-06-05 23:22:00,57.4,53.2,30.01,ESE,111,0.0,1.0,86,0.00,,,0.00,VWS V14.01,2013-06-06 03:22:00,
2013-06-05 23:32:00,56.9,53.1,30.02,ESE,111,0.0,1.0,87,0.00,,,0.00,VWS V14.01,2013-06-06 03:32:00,
2013-06-05 23:42:00,56.6,53.1,30.02,ESE,111,0.0,1.0,88,0.00,,,0.00,VWS V14.01,2013-06-06 03:42:00,
2013-06-05 23:52:00,56.6,52.8,30.04,ESE,111,0.0,0.0,87,0.00,,,0.00,VWS V14.01,2013-06-06 03:52:00,